• In Hungary
  • List of Countries
  • For 7 days
  • Water Temperature
  • Satellite Maps
  • Weather Map
  • News
  • Weather Widgets
  • user-avatar
    Login

    Hourly Weather Nakonowo

    Today, 23 October, Monday

    Time Temperature Precipitation Wind Pressure Humidity
    00:00 +8°C° 0 mm 2 mps 752 mmHg 92%
    01:00 +8°C° 0 mm 2 mps 752 mmHg 93%
    02:00 +8°C° 0 mm 2 mps 752 mmHg 93%
    03:00 +7°C° 0 mm 2 mps 752 mmHg 94%
    04:00 +7°C° 0 mm 2 mps 751 mmHg 94%
    05:00 +7°C° 0 mm 2 mps 752 mmHg 94%
    06:00 +7°C° 0 mm 2 mps 752 mmHg 94%
    07:00 +8°C° 0 mm 1 mps 752 mmHg 94%
    08:00 +8°C° 0 mm 2 mps 752 mmHg 90%
    09:00 +9°C° 0 mm 2 mps 752 mmHg 86%
    10:00 +10°C° 0 mm 2 mps 753 mmHg 82%
    11:00 +12°C° 0 mm 2 mps 753 mmHg 80%
    12:00 +12°C° 0 mm 2 mps 753 mmHg 77%
    13:00 +12°C° 0 mm 3 mps 753 mmHg 75%
    14:00 +13°C° 0.1 mm 2 mps 753 mmHg 77%
    15:00 +12°C° 0.1 mm 2 mps 754 mmHg 78%
    16:00 +12°C° 0.1 mm 2 mps 754 mmHg 80%
    17:00 +10°C° 0.1 mm 2 mps 754 mmHg 83%
    18:00 +10°C° 0.1 mm 2 mps 755 mmHg 86%
    19:00 +9°C° 0.1 mm 2 mps 756 mmHg 88%
    20:00 +8°C° 0 mm 2 mps 756 mmHg 90%
    21:00 +8°C° 0 mm 2 mps 757 mmHg 91%
    22:00 +7°C° 0 mm 2 mps 757 mmHg 92%
    23:00 +7°C° 0 mm 2 mps 757 mmHg 92%

    Tomorrow, 24 October, Tuesday

    Time Temperature Precipitation Wind Pressure Humidity
    00:00 +7°C° 0 mm 2 mps 758 mmHg 92%
    01:00 +6°C° 0 mm 2 mps 758 mmHg 92%
    02:00 +6°C° 0 mm 2 mps 759 mmHg 93%
    03:00 +6°C° 0 mm 2 mps 759 mmHg 93%
    04:00 +5°C° 0 mm 2 mps 759 mmHg 94%
    05:00 +5°C° 0 mm 2 mps 760 mmHg 93%
    06:00 +5°C° 0 mm 2 mps 760 mmHg 92%
    07:00 +5°C° 0 mm 2 mps 761 mmHg 92%
    08:00 +6°C° 0 mm 2 mps 761 mmHg 86%
    09:00 +7°C° 0 mm 2 mps 761 mmHg 81%
    10:00 +8°C° 0 mm 2 mps 762 mmHg 75%
    11:00 +8°C° 0 mm 2 mps 762 mmHg 72%
    12:00 +9°C° 0 mm 2 mps 762 mmHg 69%
    13:00 +10°C° 0 mm 2 mps 762 mmHg 66%
    14:00 +10°C° 0 mm 2 mps 762 mmHg 68%
    15:00 +9°C° 0 mm 2 mps 762 mmHg 71%
    16:00 +9°C° 0 mm 2 mps 762 mmHg 73%
    17:00 +8°C° 0 mm 2 mps 762 mmHg 75%
    18:00 +7°C° 0 mm 2 mps 762 mmHg 78%
    19:00 +7°C° 0 mm 3 mps 762 mmHg 80%
    20:00 +7°C° 0 mm 3 mps 762 mmHg 81%
    21:00 +5°C° 0 mm 3 mps 762 mmHg 81%
    22:00 +5°C° 0 mm 3 mps 762 mmHg 81%
    23:00 +5°C° 0 mm 3 mps 762 mmHg 81%

    Day after tomorrow, 25 October, Wednesday

    Time Temperature Precipitation Wind Pressure Humidity
    00:00 +5°C° 0 mm 4 mps 762 mmHg 82%
    01:00 +5°C° 0 mm 4 mps 762 mmHg 82%
    02:00 +5°C° 0 mm 4 mps 762 mmHg 83%
    03:00 +5°C° 0 mm 4 mps 761 mmHg 84%
    04:00 +5°C° 0 mm 4 mps 761 mmHg 85%
    05:00 +5°C° 0.1 mm 4 mps 761 mmHg 84%
    06:00 +5°C° 0.1 mm 5 mps 761 mmHg 82%
    07:00 +5°C° 0.1 mm 5 mps 760 mmHg 81%
    08:00 +5°C° 1 mm 6 mps 760 mmHg 81%
    09:00 +5°C° 1 mm 6 mps 760 mmHg 80%
    10:00 +5°C° 1 mm 7 mps 759 mmHg 80%
    11:00 +6°C° 1.7 mm 7 mps 759 mmHg 82%
    12:00 +6°C° 1.7 mm 7 mps 758 mmHg 84%
    13:00 +7°C° 1.7 mm 6 mps 758 mmHg 85%
    14:00 +8°C° 0.2 mm 6 mps 758 mmHg 86%
    15:00 +9°C° 0.2 mm 6 mps 757 mmHg 87%
    16:00 +10°C° 0.2 mm 5 mps 757 mmHg 88%
    17:00 +11°C° 0.2 mm 6 mps 757 mmHg 89%
    18:00 +11°C° 0.2 mm 6 mps 757 mmHg 90%
    19:00 +13°C° 0.2 mm 6 mps 757 mmHg 91%
    20:00 +13°C° 0.2 mm 5 mps 757 mmHg 91%
    21:00 +13°C° 0.2 mm 5 mps 758 mmHg 91%
    22:00 +12°C° 0.2 mm 5 mps 758 mmHg 91%
    23:00 +12°C° 0 mm 4 mps 758 mmHg 92%

    26 October, Thursday

    Time Temperature Precipitation Wind Pressure Humidity
    00:00 +11°C° 0 mm 4 mps 758 mmHg 92%
    01:00 +10°C° 0 mm 4 mps 759 mmHg 93%
    02:00 +10°C° 0 mm 4 mps 759 mmHg 94%
    03:00 +8°C° 0 mm 4 mps 759 mmHg 95%
    04:00 +9°C° 0 mm 3 mps 759 mmHg 95%
    05:00 +8°C° 0 mm 4 mps 759 mmHg 95%
    06:00 +8°C° 0 mm 4 mps 759 mmHg 95%
    07:00 +8°C° 0 mm 4 mps 759 mmHg 96%
    08:00 +10°C° 0 mm 4 mps 759 mmHg 92%
    09:00 +9°C° 0 mm 5 mps 759 mmHg 89%
    10:00 +10°C° 0 mm 5 mps 759 mmHg 85%
    11:00 +12°C° 0 mm 5 mps 759 mmHg 82%
    12:00 +12°C° 0 mm 5 mps 758 mmHg 79%
    13:00 +11°C° 0 mm 6 mps 758 mmHg 76%
    14:00 +12°C° 0 mm 5 mps 758 mmHg 77%
    15:00 +12°C° 0 mm 4 mps 758 mmHg 79%
    16:00 +12°C° 0 mm 4 mps 757 mmHg 80%
    17:00 +11°C° 0 mm 4 mps 757 mmHg 82%
    18:00 +11°C° 0 mm 3 mps 757 mmHg 85%
    19:00 +11°C° 0 mm 3 mps 757 mmHg 87%
    20:00 +10°C° 0 mm 3 mps 756 mmHg 89%
    21:00 +10°C° 0 mm 3 mps 756 mmHg 90%
    22:00 +9°C° 0 mm 3 mps 756 mmHg 92%
    23:00 +8°C° 0 mm 4 mps 756 mmHg 92%

    27 October, Friday

    Time Temperature Precipitation Wind Pressure Humidity
    00:00 +8°C° 0 mm 4 mps 755 mmHg 93%
    01:00 +8°C° 0 mm 4 mps 755 mmHg 94%
    02:00 +8°C° 0 mm 4 mps 754 mmHg 94%
    03:00 +8°C° 0 mm 4 mps 754 mmHg 94%
    04:00 +8°C° 0 mm 4 mps 753 mmHg 95%
    05:00 +8°C° 0 mm 4 mps 753 mmHg 92%
    06:00 +8°C° 0 mm 4 mps 753 mmHg 90%
    07:00 +8°C° 0 mm 4 mps 752 mmHg 88%
    08:00 +10°C° 0 mm 4 mps 752 mmHg 84%
    09:00 +9°C° 0 mm 5 mps 752 mmHg 80%
    10:00 +10°C° 0 mm 5 mps 752 mmHg 76%
    11:00 +10°C° 0.1 mm 6 mps 751 mmHg 74%
    12:00 +10°C° 0.1 mm 6 mps 751 mmHg 71%
    13:00 +10°C° 0.1 mm 7 mps 750 mmHg 69%
    14:00 +10°C° 0.2 mm 7 mps 750 mmHg 71%
    15:00 +10°C° 0.2 mm 6 mps 749 mmHg 73%
    16:00 +9°C° 0.2 mm 6 mps 749 mmHg 76%
    17:00 +9°C° 0.5 mm 7 mps 749 mmHg 78%
    18:00 +8°C° 0.5 mm 7 mps 749 mmHg 80%
    19:00 +8°C° 0.5 mm 7 mps 748 mmHg 83%
    20:00 +8°C° 0.3 mm 7 mps 749 mmHg 82%
    21:00 +8°C° 0.3 mm 7 mps 749 mmHg 81%
    22:00 +8°C° 0.3 mm 7 mps 749 mmHg 80%
    23:00 +8°C° 0.1 mm 6 mps 749 mmHg 80%

    28 October, Saturday

    Time Temperature Precipitation Wind Pressure Humidity
    00:00 +8°C° 0.1 mm 6 mps 749 mmHg 80%
    01:00 +7°C° 0.1 mm 5 mps 750 mmHg 79%
    02:00 +7°C° 0.1 mm 6 mps 750 mmHg 80%
    03:00 +5°C° 0.1 mm 6 mps 750 mmHg 81%
    04:00 +5°C° 0.1 mm 6 mps 750 mmHg 82%
    05:00 +5°C° 0 mm 5 mps 750 mmHg 84%
    06:00 +5°C° 0 mm 5 mps 750 mmHg 86%
    07:00 +5°C° 0 mm 4 mps 750 mmHg 88%
    08:00 +5°C° 0.1 mm 5 mps 750 mmHg 86%
    09:00 +6°C° 0.1 mm 5 mps 750 mmHg 83%
    10:00 +7°C° 0.1 mm 5 mps 750 mmHg 81%
    11:00 +7°C° 0.3 mm 5 mps 750 mmHg 80%
    12:00 +8°C° 0.3 mm 5 mps 749 mmHg 80%
    13:00 +8°C° 0.3 mm 5 mps 749 mmHg 79%
    14:00 +8°C° 0.3 mm 5 mps 748 mmHg 81%
    15:00 +8°C° 0.3 mm 5 mps 748 mmHg 82%
    16:00 +8°C° 0.3 mm 4 mps 748 mmHg 84%
    17:00 +7°C° 0.3 mm 4 mps 748 mmHg 86%
    18:00 +7°C° 0.3 mm 4 mps 748 mmHg 88%
    19:00 +7°C° 0.3 mm 4 mps 748 mmHg 90%
    20:00 +7°C° 0.2 mm 5 mps 748 mmHg 90%
    21:00 +6°C° 0.2 mm 5 mps 748 mmHg 90%
    22:00 +6°C° 0.2 mm 5 mps 748 mmHg 90%
    23:00 +6°C° 0.1 mm 5 mps 749 mmHg 89%

    29 October, Sunday

    Time Temperature Precipitation Wind Pressure Humidity
    00:00 +5°C° 0.1 mm 5 mps 749 mmHg 87%
    01:00 +5°C° 0.1 mm 5 mps 749 mmHg 86%
    02:00 +5°C° 0 mm 5 mps 750 mmHg 85%
    03:00 +5°C° 0 mm 5 mps 750 mmHg 83%
    04:00 +3°C° 0 mm 5 mps 751 mmHg 82%
    05:00 +3°C° 0 mm 5 mps 751 mmHg 82%
    06:00 +3°C° 0 mm 5 mps 752 mmHg 82%
    07:00 +3°C° 0 mm 4 mps 752 mmHg 82%
    08:00 +4°C° 0 mm 4 mps 752 mmHg 77%
    09:00 +5°C° 0 mm 4 mps 752 mmHg 72%
    10:00 +7°C° 0 mm 4 mps 752 mmHg 67%
    11:00 +7°C° 0 mm 4 mps 752 mmHg 65%
    12:00 +7°C° 0 mm 4 mps 752 mmHg 63%
    13:00 +8°C° 0 mm 5 mps 751 mmHg 60%
    14:00 +7°C° 0 mm 4 mps 751 mmHg 65%
    15:00 +7°C° 0 mm 4 mps 750 mmHg 70%
    16:00 +8°C° 0 mm 3 mps 750 mmHg 75%
    17:00 +6°C° 0.1 mm 4 mps 749 mmHg 79%
    18:00 +6°C° 0.1 mm 4 mps 748 mmHg 84%
    19:00 +6°C° 0.1 mm 4 mps 748 mmHg 88%
    20:00 +7°C° 0.5 mm 5 mps 747 mmHg 88%
    21:00 +7°C° 0.5 mm 5 mps 746 mmHg 88%
    22:00 +7°C° 0.5 mm 6 mps 745 mmHg 89%
    23:00 +7°C° 0.6 mm 6 mps 744 mmHg 89%
    Show more